EWG5LP EDDL-LEPA

Flight info

Callsign EWG5LP
Flight time 2h 2m
Altitude 35000
Route MODRU2K MODRU Z283 SOPOK DCT ROUSY DCT GTQ DCT POGOL DCT LASAT DCT MOROK DCT GILIR DCT GEVEA DCT INCUS DCT BALSI DCT RETNO DCT TUPOX DCT MTG DCT DIVKO DCT VATIR DCT PIVUS DCT BODEQ DCT VERSO DCT LUNIK LUNIK3P
Aircraft A320/M-SDE2E3FGIJ1RWXYZ/HB1

Departure

Time 2026-05-05 05:48
Airport Düsseldorf Airport (EDDL)

Arrival

Time 2026-05-05 07:51
Airport Palma de Mallorca Airport (LEPA)
Time Latitude Longitude Altitude Speed Heading
2026-05-05 05:25 51.27991 6.76183 123 ft 0 kts 119°
2026-05-05 05:26 51.27999 6.76162 123 ft 0 kts 118°
2026-05-05 05:37 51.28005 6.76142 123 ft 4 kts 118°
2026-05-05 05:38 51.28017 6.76110 123 ft 4 kts 114°
2026-05-05 05:38 51.28020 6.76074 125 ft 4 kts 57°
2026-05-05 05:38 51.28001 6.76050 123 ft 4 kts 13°
2026-05-05 05:38 51.27975 6.76047 124 ft 4 kts 359°
2026-05-05 05:39 51.27969 6.76048 125 ft 0 kts 359°
2026-05-05 05:42 51.27997 6.76047 124 ft 8 kts 359°
2026-05-05 05:42 51.28052 6.76048 126 ft 10 kts
2026-05-05 05:42 51.28110 6.76024 127 ft 7 kts 344°
2026-05-05 05:42 51.28162 6.76089 127 ft 15 kts 53°
2026-05-05 05:43 51.28240 6.76253 128 ft 21 kts 52°
2026-05-05 05:43 51.28335 6.76452 124 ft 24 kts 52°
2026-05-05 05:43 51.28437 6.76667 126 ft 25 kts 52°
2026-05-05 05:43 51.28541 6.76884 124 ft 24 kts 52°
2026-05-05 05:44 51.28645 6.77101 129 ft 25 kts 52°
2026-05-05 05:44 51.28751 6.77325 127 ft 26 kts 52°
2026-05-05 05:44 51.28853 6.77539 128 ft 20 kts 52°
2026-05-05 05:44 51.28940 6.77720 127 ft 22 kts 53°
2026-05-05 05:45 51.29032 6.77916 130 ft 22 kts 54°
2026-05-05 05:45 51.29127 6.78115 133 ft 22 kts 53°
2026-05-05 05:45 51.29216 6.78300 140 ft 20 kts 52°
2026-05-05 05:45 51.29292 6.78461 147 ft 16 kts 53°
2026-05-05 05:46 51.29338 6.78551 151 ft 7 kts 40°
2026-05-05 05:46 51.29396 6.78573 152 ft 10 kts 357°
2026-05-05 05:46 51.29463 6.78564 152 ft 11 kts 355°
2026-05-05 05:46 51.29525 6.78493 151 ft 13 kts 263°
2026-05-05 05:47 51.29492 6.78412 149 ft 0 kts 232°
2026-05-05 05:47 51.29479 6.78386 148 ft 13 kts 232°
2026-05-05 05:47 51.29267 6.77940 136 ft 88 kts 233°
2026-05-05 05:48 51.28768 6.76893 124 ft 146 kts 232°
2026-05-05 05:48 51.28090 6.75459 452 ft 163 kts 233°
2026-05-05 05:48 51.27421 6.74036 1137 ft 162 kts 233°
2026-05-05 05:48 51.26741 6.72608 1838 ft 161 kts 232°
2026-05-05 05:49 51.26061 6.71192 2456 ft 160 kts 231°
2026-05-05 05:49 51.25384 6.69784 3053 ft 160 kts 231°
2026-05-05 05:49 51.24768 6.68265 3521 ft 171 kts 243°
2026-05-05 05:49 51.24356 6.66352 3795 ft 194 kts 258°
2026-05-05 05:50 51.24275 6.64079 4043 ft 219 kts 275°
2026-05-05 05:50 51.24672 6.61608 4420 ft 241 kts 294°
2026-05-05 05:50 51.25586 6.59360 5111 ft 249 kts 310°
2026-05-05 05:50 51.26744 6.57164 5619 ft 268 kts 310°
2026-05-05 05:51 51.27958 6.54871 6377 ft 274 kts 310°
2026-05-05 05:51 51.29204 6.52525 7162 ft 278 kts 310°
2026-05-05 05:51 51.30432 6.50109 7964 ft 281 kts 304°
2026-05-05 05:51 51.31374 6.47354 8768 ft 285 kts 292°
2026-05-05 05:52 51.31932 6.44344 9573 ft 288 kts 280°
2026-05-05 05:52 51.32086 6.41146 10307 ft 291 kts 268°
2026-05-05 05:52 51.31804 6.37916 11026 ft 295 kts 255°
2026-05-05 05:52 51.31094 6.34832 11733 ft 298 kts 243°
2026-05-05 05:53 51.29968 6.32015 12454 ft 302 kts 231°
2026-05-05 05:53 51.28466 6.29631 13145 ft 307 kts 218°
2026-05-05 05:53 51.26644 6.27817 13816 ft 312 kts 206°
2026-05-05 05:53 51.24662 6.26298 14045 ft 331 kts 206°
2026-05-05 05:54 51.22515 6.24670 14166 ft 352 kts 205°
2026-05-05 05:54 51.20240 6.22952 14305 ft 371 kts 206°
2026-05-05 05:54 51.17867 6.21162 14709 ft 379 kts 206°
2026-05-05 05:54 51.15472 6.19358 15308 ft 382 kts 206°
2026-05-05 05:55 51.13060 6.17540 15914 ft 384 kts 206°
2026-05-05 05:55 51.10627 6.15708 16426 ft 389 kts 205°
2026-05-05 05:55 51.08164 6.13856 16967 ft 394 kts 206°
2026-05-05 05:55 51.05713 6.12010 17538 ft 397 kts 206°
2026-05-05 05:56 51.03211 6.10121 18172 ft 399 kts 205°
2026-05-05 05:56 51.00752 6.08042 18713 ft 401 kts 213°
2026-05-05 05:56 50.98380 6.05692 19264 ft 402 kts 213°
2026-05-05 05:56 50.95997 6.03332 19802 ft 404 kts 213°
2026-05-05 05:57 50.93598 6.00979 20314 ft 406 kts 211°
2026-05-05 05:57 50.91140 5.98736 20819 ft 409 kts 210°
2026-05-05 05:57 50.88632 5.96588 21320 ft 411 kts 209°
2026-05-05 05:57 50.86091 5.94488 21820 ft 413 kts 208°
2026-05-05 05:58 50.83537 5.92398 22284 ft 415 kts 208°
2026-05-05 05:58 50.81004 5.90306 22744 ft 417 kts 209°
2026-05-05 05:58 50.78440 5.88144 23194 ft 418 kts 210°
2026-05-05 05:58 50.75875 5.85945 23605 ft 420 kts 210°
2026-05-05 05:59 50.73309 5.83720 23984 ft 421 kts 210°
2026-05-05 05:59 50.70739 5.81481 24356 ft 422 kts 210°
2026-05-05 05:59 50.68164 5.79244 24749 ft 423 kts 210°
2026-05-05 05:59 50.65582 5.77016 25134 ft 423 kts 210°
2026-05-05 06:00 50.62988 5.74809 25503 ft 424 kts 207°
2026-05-05 06:00 50.60250 5.73078 25865 ft 426 kts 198°
2026-05-05 06:00 50.57343 5.72095 26224 ft 429 kts 189°
2026-05-05 06:00 50.54389 5.71903 26561 ft 433 kts 180°
2026-05-05 06:01 50.51390 5.72397 26883 ft 435 kts 175°
2026-05-05 06:01 50.48380 5.72991 27210 ft 435 kts 175°
2026-05-05 06:01 50.45385 5.73573 27525 ft 436 kts 175°
2026-05-05 06:01 50.42371 5.74152 27811 ft 437 kts 176°
2026-05-05 06:02 50.39352 5.74724 28110 ft 437 kts 176°
2026-05-05 06:02 50.36327 5.75291 28396 ft 438 kts 176°
2026-05-05 06:02 50.33296 5.75860 28659 ft 439 kts 176°
2026-05-05 06:02 50.30262 5.76431 28975 ft 438 kts 176°
2026-05-05 06:03 50.27243 5.77004 29320 ft 436 kts 176°
2026-05-05 06:03 50.24256 5.77841 29681 ft 437 kts 169°
2026-05-05 06:03 50.21370 5.79135 30018 ft 436 kts 167°
2026-05-05 06:03 50.18454 5.80454 30337 ft 434 kts 168°
2026-05-05 06:04 50.15556 5.81751 30671 ft 432 kts 168°
2026-05-05 06:04 50.12678 5.83025 31003 ft 429 kts 168°
2026-05-05 06:04 50.09801 5.84294 31330 ft 427 kts 168°
2026-05-05 06:04 50.06946 5.85554 31655 ft 425 kts 169°
2026-05-05 06:05 50.04143 5.86793 31979 ft 422 kts 168°
2026-05-05 06:05 50.01327 5.88038 32350 ft 419 kts 168°
2026-05-05 06:05 49.98526 5.89272 32692 ft 416 kts 169°
2026-05-05 06:05 49.95743 5.90498 33031 ft 414 kts 169°
2026-05-05 06:06 49.92976 5.91719 33350 ft 412 kts 169°
2026-05-05 06:06 49.90214 5.92938 33568 ft 413 kts 169°
2026-05-05 06:06 49.87448 5.94153 33817 ft 413 kts 170°
2026-05-05 06:06 49.84683 5.95364 34072 ft 412 kts 170°
2026-05-05 06:07 49.81926 5.96572 34286 ft 412 kts 169°
2026-05-05 06:07 49.79203 5.97766 34503 ft 412 kts 169°
2026-05-05 06:07 49.76443 5.98976 34722 ft 412 kts 169°
2026-05-05 06:07 49.73684 6.00182 34854 ft 413 kts 169°
2026-05-05 06:08 49.68131 6.02601 34892 ft 415 kts 169°
2026-05-05 06:08 49.62567 6.05022 34893 ft 415 kts 169°
2026-05-05 06:09 49.57005 6.07441 34892 ft 414 kts 169°
2026-05-05 06:09 49.51516 6.09827 34892 ft 412 kts 169°
2026-05-05 06:10 49.46227 6.13393 34888 ft 423 kts 152°
2026-05-05 06:10 49.41561 6.19021 34884 ft 427 kts 147°
2026-05-05 06:11 49.36934 6.24765 34862 ft 428 kts 147°
2026-05-05 06:11 49.32297 6.30502 34865 ft 428 kts 147°
2026-05-05 06:12 49.27658 6.36213 34870 ft 428 kts 147°
2026-05-05 06:12 49.23017 6.41898 34878 ft 427 kts 147°
2026-05-05 06:13 49.18404 6.47547 34895 ft 427 kts 147°
2026-05-05 06:13 49.13754 6.53235 34900 ft 428 kts 147°
2026-05-05 06:14 49.09107 6.58909 34894 ft 427 kts 147°
2026-05-05 06:14 49.04461 6.64559 34875 ft 427 kts 147°
2026-05-05 06:15 48.99553 6.69356 34881 ft 417 kts 162°
2026-05-05 06:15 48.93998 6.71335 34882 ft 407 kts 180°
2026-05-05 06:16 48.88352 6.71201 34883 ft 406 kts 184°
2026-05-05 06:16 48.82700 6.70981 34884 ft 406 kts 184°
2026-05-05 06:17 48.77082 6.70774 34887 ft 406 kts 184°
2026-05-05 06:17 48.71435 6.70570 34892 ft 406 kts 184°
2026-05-05 06:18 48.65786 6.70345 34894 ft 406 kts 184°
2026-05-05 06:18 48.60129 6.70109 34895 ft 406 kts 184°
2026-05-05 06:19 48.54509 6.69891 34896 ft 406 kts 184°
2026-05-05 06:19 48.48855 6.69679 34894 ft 406 kts 184°
2026-05-05 06:20 48.43194 6.69464 34896 ft 406 kts 184°
2026-05-05 06:20 48.37539 6.69250 34895 ft 406 kts 184°
2026-05-05 06:21 48.31884 6.69028 34895 ft 407 kts 184°
2026-05-05 06:21 48.26223 6.68807 34898 ft 407 kts 184°
2026-05-05 06:22 48.20562 6.68593 34898 ft 407 kts 184°
2026-05-05 06:22 48.14937 6.68376 34899 ft 407 kts 184°
2026-05-05 06:23 48.09274 6.68166 34905 ft 407 kts 184°
2026-05-05 06:23 48.03612 6.67954 34904 ft 407 kts 184°
2026-05-05 06:24 47.97955 6.67735 34904 ft 406 kts 183°
2026-05-05 06:24 47.92296 6.67512 34908 ft 407 kts 183°
2026-05-05 06:25 47.86677 6.67302 34906 ft 406 kts 183°
2026-05-05 06:25 47.81015 6.67094 34902 ft 406 kts 183°
2026-05-05 06:26 47.76312 6.66928 34905 ft 406 kts 183°
2026-05-05 06:26 47.70659 6.66718 34910 ft 406 kts 183°
2026-05-05 06:27 47.62183 6.66385 34917 ft 406 kts 183°
2026-05-05 06:28 47.56516 6.66174 34922 ft 406 kts 183°
2026-05-05 06:28 47.50895 6.65968 34922 ft 406 kts 183°
2026-05-05 06:29 47.45244 6.65758 34921 ft 406 kts 183°
2026-05-05 06:29 47.39754 6.64137 34917 ft 403 kts 202°
2026-05-05 06:30 47.35046 6.59744 34915 ft 406 kts 218°
2026-05-05 06:30 47.30748 6.54313 34909 ft 406 kts 218°
2026-05-05 06:31 47.26432 6.48929 34911 ft 406 kts 218°
2026-05-05 06:31 47.22119 6.43554 34906 ft 406 kts 218°
2026-05-05 06:32 47.17805 6.38169 34903 ft 407 kts 218°
2026-05-05 06:32 47.13502 6.32811 34905 ft 407 kts 217°
2026-05-05 06:33 47.09129 6.27489 34904 ft 406 kts 213°
2026-05-05 06:33 47.04105 6.23958 34896 ft 402 kts 194°
2026-05-05 06:34 46.98555 6.22868 34888 ft 402 kts 186°
2026-05-05 06:34 46.93000 6.22141 34890 ft 403 kts 186°
2026-05-05 06:35 46.87408 6.21396 34905 ft 403 kts 186°
2026-05-05 06:35 46.81807 6.20647 34908 ft 403 kts 186°
2026-05-05 06:36 46.76205 6.19905 34910 ft 404 kts 186°
2026-05-05 06:36 46.70623 6.19157 34912 ft 405 kts 186°
2026-05-05 06:37 46.65011 6.18410 34916 ft 405 kts 186°
2026-05-05 06:37 46.59397 6.17672 34923 ft 405 kts 186°
2026-05-05 06:38 46.53774 6.16931 34925 ft 405 kts 186°
2026-05-05 06:38 46.48179 6.16194 34930 ft 405 kts 186°
2026-05-05 06:39 46.42551 6.15464 34932 ft 406 kts 186°
2026-05-05 06:39 46.36912 6.14733 34924 ft 406 kts 186°
2026-05-05 06:40 46.31299 6.14005 34919 ft 407 kts 186°
2026-05-05 06:40 46.25645 6.13259 34919 ft 408 kts 186°
2026-05-05 06:41 46.20013 6.12205 34917 ft 408 kts 189°
2026-05-05 06:41 46.14439 6.10869 34914 ft 409 kts 190°
2026-05-05 06:42 46.08816 6.09525 34916 ft 409 kts 189°
2026-05-05 06:42 46.03170 6.08262 34920 ft 410 kts 189°
2026-05-05 06:43 45.97573 6.07047 34911 ft 410 kts 189°
2026-05-05 06:43 45.91918 6.05804 34911 ft 411 kts 189°
2026-05-05 06:44 45.86260 6.04549 34913 ft 411 kts 189°
2026-05-05 06:44 45.80594 6.03304 34908 ft 412 kts 189°
2026-05-05 06:45 45.74949 6.02060 34909 ft 412 kts 189°
2026-05-05 06:45 45.69273 6.00803 34904 ft 413 kts 190°
2026-05-05 06:46 45.63585 5.99547 34908 ft 413 kts 189°
2026-05-05 06:46 45.57892 5.98292 34907 ft 414 kts 190°
2026-05-05 06:47 45.52230 5.97056 34909 ft 414 kts 190°
2026-05-05 06:47 45.46521 5.95782 34908 ft 414 kts 191°
2026-05-05 06:48 45.40882 5.94107 34905 ft 413 kts 194°
2026-05-05 06:48 45.35279 5.92236 34905 ft 414 kts 194°
2026-05-05 06:49 45.29697 5.90424 34905 ft 414 kts 194°
2026-05-05 06:49 45.24068 5.88667 34909 ft 414 kts 193°
2026-05-05 06:50 45.18437 5.86934 34898 ft 414 kts 194°
2026-05-05 06:50 45.12796 5.85200 34898 ft 414 kts 194°
2026-05-05 06:51 45.07145 5.83451 34902 ft 415 kts 194°
2026-05-05 06:51 45.01538 5.81712 34890 ft 415 kts 194°
2026-05-05 06:52 44.95892 5.79973 34896 ft 415 kts 194°
2026-05-05 06:52 44.90247 5.78238 34902 ft 414 kts 194°
2026-05-05 06:53 44.84608 5.76507 34893 ft 414 kts 195°
2026-05-05 06:53 44.79003 5.74796 34903 ft 414 kts 195°
2026-05-05 06:54 44.73369 5.73078 34911 ft 414 kts 195°
2026-05-05 06:54 44.67736 5.71362 34916 ft 414 kts 195°
2026-05-05 06:55 44.62131 5.69657 34949 ft 414 kts 195°
2026-05-05 06:55 44.56505 5.67951 34934 ft 413 kts 195°
2026-05-05 06:56 44.50885 5.66245 34936 ft 413 kts 195°
2026-05-05 06:56 44.45262 5.64540 34930 ft 413 kts 195°
2026-05-05 06:57 44.39668 5.62858 34931 ft 412 kts 195°
2026-05-05 06:57 44.34267 5.60312 34933 ft 409 kts 204°
2026-05-05 06:58 44.28970 5.57394 34930 ft 409 kts 204°
2026-05-05 06:58 44.23705 5.54510 34929 ft 408 kts 204°
2026-05-05 06:59 44.18415 5.51626 34937 ft 408 kts 204°
2026-05-05 06:59 44.13124 5.48739 34942 ft 408 kts 204°
2026-05-05 07:00 44.07867 5.45882 34926 ft 407 kts 205°
2026-05-05 07:00 44.02585 5.43017 34936 ft 406 kts 205°
2026-05-05 07:01 43.97324 5.40162 34943 ft 406 kts 205°
2026-05-05 07:01 43.92060 5.37309 34940 ft 406 kts 205°
2026-05-05 07:02 43.86833 5.34488 34928 ft 405 kts 205°
2026-05-05 07:02 43.81576 5.31653 34952 ft 404 kts 205°
2026-05-05 07:03 43.76325 5.28825 34940 ft 404 kts 205°
2026-05-05 07:03 43.71125 5.26026 34938 ft 403 kts 205°
2026-05-05 07:04 43.65892 5.23222 34928 ft 402 kts 206°
2026-05-05 07:04 43.60672 5.20434 34933 ft 401 kts 206°
2026-05-05 07:05 43.55458 5.17650 34959 ft 401 kts 206°
2026-05-05 07:05 43.50285 5.14882 34947 ft 401 kts 206°
2026-05-05 07:06 43.45089 5.12110 34954 ft 400 kts 206°
2026-05-05 07:06 43.39896 5.09343 34959 ft 399 kts 208°
2026-05-05 07:07 43.35206 5.05471 34951 ft 393 kts 218°
2026-05-05 07:07 43.30734 5.01237 34927 ft 392 kts 218°
2026-05-05 07:08 43.26228 4.96993 34935 ft 392 kts 217°
2026-05-05 07:08 43.21739 4.92783 34969 ft 391 kts 218°
2026-05-05 07:09 43.17270 4.88588 34961 ft 390 kts 217°
2026-05-05 07:09 43.12787 4.84393 34955 ft 390 kts 217°
2026-05-05 07:10 43.08311 4.80204 34937 ft 389 kts 217°
2026-05-05 07:10 43.03716 4.76236 34940 ft 391 kts 213°
2026-05-05 07:11 42.98977 4.72647 34944 ft 391 kts 213°
2026-05-05 07:11 42.94211 4.69042 34946 ft 391 kts 213°
2026-05-05 07:12 42.89449 4.65433 34929 ft 392 kts 213°
2026-05-05 07:12 42.84674 4.61821 34931 ft 392 kts 213°
2026-05-05 07:13 42.79893 4.58224 34931 ft 392 kts 212°
2026-05-05 07:13 42.75134 4.54644 34957 ft 392 kts 212°
2026-05-05 07:14 42.70351 4.51052 34958 ft 392 kts 212°
2026-05-05 07:14 42.65599 4.47484 34959 ft 392 kts 212°
2026-05-05 07:15 42.60813 4.43894 34963 ft 392 kts 212°
2026-05-05 07:15 42.56022 4.40311 34962 ft 392 kts 212°
2026-05-05 07:16 42.51265 4.36765 34935 ft 393 kts 212°
2026-05-05 07:16 42.46475 4.33198 34940 ft 393 kts 212°
2026-05-05 07:17 42.41669 4.29615 34941 ft 394 kts 212°
2026-05-05 07:17 42.37677 4.26656 34944 ft 394 kts 212°
2026-05-05 07:18 42.32052 4.22496 34931 ft 394 kts 212°
2026-05-05 07:18 42.27270 4.18954 34951 ft 395 kts 212°
2026-05-05 07:19 42.23221 4.15964 34951 ft 395 kts 212°
2026-05-05 07:19 42.18413 4.12432 34955 ft 396 kts 212°
2026-05-05 07:20 42.12786 4.08289 34960 ft 396 kts 212°
2026-05-05 07:20 42.08720 4.05307 34941 ft 397 kts 212°
2026-05-05 07:21 42.03895 4.01777 34944 ft 397 kts 212°
2026-05-05 07:21 41.99037 3.98221 34948 ft 398 kts 212°
2026-05-05 07:22 41.94157 3.94675 34956 ft 399 kts 209°
2026-05-05 07:22 41.88797 3.92523 34933 ft 408 kts 195°
2026-05-05 07:23 41.83234 3.91260 34936 ft 408 kts 195°
2026-05-05 07:23 41.77625 3.89960 34943 ft 409 kts 195°
2026-05-05 07:24 41.72013 3.88652 34949 ft 409 kts 195°
2026-05-05 07:24 41.66386 3.87360 34936 ft 410 kts 195°
2026-05-05 07:25 41.60794 3.86079 34948 ft 410 kts 195°
2026-05-05 07:25 41.55155 3.84783 34952 ft 410 kts 195°
2026-05-05 07:26 41.49523 3.83488 34930 ft 410 kts 195°
2026-05-05 07:26 41.43892 3.82199 34939 ft 411 kts 195°
2026-05-05 07:27 41.38293 3.80925 34955 ft 411 kts 195°
2026-05-05 07:27 41.32652 3.79646 34968 ft 411 kts 195°
2026-05-05 07:28 41.27012 3.78355 34952 ft 411 kts 195°
2026-05-05 07:28 41.21373 3.77070 34956 ft 411 kts 195°
2026-05-05 07:29 41.15733 3.75725 34955 ft 408 kts 200°
2026-05-05 07:29 41.10479 3.73201 34958 ft 403 kts 206°
2026-05-05 07:30 41.05242 3.70501 34676 ft 403 kts 206°
2026-05-05 07:30 41.00012 3.67812 34203 ft 402 kts 207°
2026-05-05 07:30 40.97398 3.66467 33967 ft 402 kts 207°
2026-05-05 07:31 40.94814 3.65137 33693 ft 402 kts 207°
2026-05-05 07:31 40.92201 3.63795 33423 ft 403 kts 207°
2026-05-05 07:31 40.89579 3.62451 33153 ft 403 kts 207°
2026-05-05 07:31 40.86959 3.61108 32887 ft 404 kts 207°
2026-05-05 07:32 40.84331 3.59761 32603 ft 404 kts 207°
2026-05-05 07:32 40.81708 3.58415 32330 ft 405 kts 207°
2026-05-05 07:32 40.79112 3.57089 31929 ft 406 kts 207°
2026-05-05 07:32 40.76472 3.55743 31548 ft 407 kts 207°
2026-05-05 07:33 40.73828 3.54399 31170 ft 408 kts 207°
2026-05-05 07:33 40.71167 3.53045 30799 ft 409 kts 207°
2026-05-05 07:33 40.68505 3.51692 30425 ft 410 kts 207°
2026-05-05 07:33 40.65839 3.50335 29344 ft 412 kts 207°
2026-05-05 07:34 40.63152 3.48964 28192 ft 415 kts 207°
2026-05-05 07:34 40.60501 3.47618 27378 ft 411 kts 206°
2026-05-05 07:34 40.57854 3.46282 26679 ft 404 kts 206°
2026-05-05 07:34 40.55239 3.44964 25985 ft 399 kts 206°
2026-05-05 07:35 40.52658 3.43660 25302 ft 395 kts 206°
2026-05-05 07:35 40.50104 3.42367 24630 ft 390 kts 206°
2026-05-05 07:35 40.47579 3.41088 23985 ft 387 kts 206°
2026-05-05 07:35 40.45028 3.39971 23321 ft 388 kts 199°
2026-05-05 07:36 40.42379 3.39445 22574 ft 393 kts 189°
2026-05-05 07:36 40.39624 3.39493 21832 ft 396 kts 184°
2026-05-05 07:36 40.36871 3.39659 21150 ft 394 kts 184°
2026-05-05 07:36 40.34139 3.39819 20530 ft 391 kts 184°
2026-05-05 07:37 40.31429 3.39971 19931 ft 389 kts 184°
2026-05-05 07:37 40.28734 3.40118 19348 ft 386 kts 184°
2026-05-05 07:37 40.26055 3.40266 18804 ft 384 kts 183°
2026-05-05 07:37 40.23423 3.40146 18272 ft 373 kts 196°
2026-05-05 07:38 40.20985 3.39253 17665 ft 367 kts 202°
2026-05-05 07:38 40.18556 3.38232 17021 ft 365 kts 202°
2026-05-05 07:38 40.16151 3.37203 16427 ft 363 kts 202°
2026-05-05 07:38 40.13761 3.36166 15871 ft 360 kts 202°
2026-05-05 07:39 40.11390 3.35121 15325 ft 358 kts 202°
2026-05-05 07:39 40.09045 3.34072 14779 ft 355 kts 202°
2026-05-05 07:39 40.06714 3.33015 14243 ft 353 kts 202°
2026-05-05 07:39 40.04406 3.31955 13706 ft 351 kts 202°
2026-05-05 07:40 40.02114 3.30886 13116 ft 348 kts 202°
2026-05-05 07:40 39.99841 3.29816 12531 ft 345 kts 202°
2026-05-05 07:40 39.97589 3.28746 11942 ft 343 kts 202°
2026-05-05 07:40 39.95357 3.27673 11375 ft 340 kts 202°
2026-05-05 07:41 39.93147 3.26598 10802 ft 337 kts 202°
2026-05-05 07:41 39.90966 3.25523 10341 ft 328 kts 202°
2026-05-05 07:41 39.88933 3.24516 10211 ft 299 kts 202°
2026-05-05 07:41 39.87090 3.23606 10041 ft 276 kts 202°
2026-05-05 07:42 39.85321 3.22732 9515 ft 268 kts 202°
2026-05-05 07:42 39.83586 3.21872 8844 ft 265 kts 202°
2026-05-05 07:42 39.81856 3.21011 8317 ft 267 kts 202°
2026-05-05 07:42 39.80135 3.20152 7810 ft 263 kts 202°
2026-05-05 07:43 39.78429 3.19300 7115 ft 262 kts 202°
2026-05-05 07:43 39.76730 3.18443 6524 ft 261 kts 205°
2026-05-05 07:43 39.75167 3.17212 6023 ft 264 kts 220°
2026-05-05 07:43 39.73930 3.15484 5522 ft 265 kts 234°
2026-05-05 07:44 39.72986 3.13444 5059 ft 258 kts 239°
2026-05-05 07:44 39.72101 3.11481 4692 ft 244 kts 238°
2026-05-05 07:44 39.71250 3.09606 4074 ft 241 kts 238°
2026-05-05 07:44 39.70430 3.07839 3998 ft 216 kts 237°
2026-05-05 07:45 39.69658 3.06202 4008 ft 210 kts 238°
2026-05-05 07:45 39.68896 3.04580 4009 ft 211 kts 238°
2026-05-05 07:45 39.68128 3.02940 4006 ft 213 kts 238°
2026-05-05 07:45 39.67366 3.01313 4009 ft 214 kts 237°
2026-05-05 07:46 39.66595 2.99667 3998 ft 214 kts 238°
2026-05-05 07:46 39.65823 2.98021 3821 ft 211 kts 237°
2026-05-05 07:46 39.65062 2.96397 3559 ft 207 kts 238°
2026-05-05 07:46 39.64332 2.94842 3308 ft 196 kts 237°
2026-05-05 07:47 39.63635 2.93358 3054 ft 188 kts 237°
2026-05-05 07:47 39.62966 2.91933 2851 ft 182 kts 237°
2026-05-05 07:47 39.62334 2.90589 2582 ft 179 kts 237°
2026-05-05 07:47 39.61694 2.89227 2337 ft 176 kts 236°
2026-05-05 07:48 39.61057 2.87874 2097 ft 176 kts 237°
2026-05-05 07:48 39.60421 2.86522 1868 ft 174 kts 238°
2026-05-05 07:48 39.59812 2.85228 1628 ft 160 kts 237°
2026-05-05 07:48 39.59266 2.84068 1446 ft 143 kts 238°
2026-05-05 07:49 39.58760 2.82990 1245 ft 139 kts 237°
2026-05-05 07:49 39.58265 2.81945 1075 ft 135 kts 237°
2026-05-05 07:49 39.57774 2.80894 889 ft 135 kts 238°
2026-05-05 07:49 39.57281 2.79856 696 ft 136 kts 237°
2026-05-05 07:50 39.56799 2.78837 521 ft 134 kts 237°
2026-05-05 07:50 39.56322 2.77820 380 ft 131 kts 237°
2026-05-05 07:50 39.55846 2.76818 198 ft 129 kts 238°
2026-05-05 07:50 39.55381 2.75823 41 ft 123 kts 238°
2026-05-05 07:51 39.55016 2.75054 38 ft 76 kts 238°
2026-05-05 07:51 39.54847 2.74673 38 ft 27 kts 250°
2026-05-05 07:51 39.54807 2.74461 38 ft 21 kts 264°
2026-05-05 07:51 39.54803 2.74285 38 ft 10 kts 269°
2026-05-05 07:52 39.54801 2.74186 38 ft 12 kts 265°
2026-05-05 07:52 39.54765 2.74077 38 ft 14 kts 238°
2026-05-05 07:52 39.54721 2.73985 38 ft 13 kts 238°
2026-05-05 07:52 39.54672 2.73880 38 ft 15 kts 239°
2026-05-05 07:53 39.54618 2.73766 38 ft 13 kts 238°
2026-05-05 07:53 39.54583 2.73677 38 ft 12 kts 265°
2026-05-05 07:53 39.54626 2.73624 38 ft 9 kts 353°
2026-05-05 07:53 39.54678 2.73602 38 ft 7 kts 329°
2026-05-05 07:54 39.54719 2.73570 38 ft 6 kts 329°
2026-05-05 07:54 39.54755 2.73542 36 ft 5 kts 329°
2026-05-05 07:54 39.54777 2.73550 38 ft 3 kts 49°
2026-05-05 07:54 39.54786 2.73570 38 ft 2 kts 58°
2026-05-05 07:55 39.54792 2.73582 38 ft 1 kts 58°
2026-05-05 07:55 39.54796 2.73591 38 ft 2 kts 58°
2026-05-05 07:55 39.54800 2.73598 38 ft 0 kts 58°
2026-05-05 07:55 39.54800 2.73599 38 ft 0 kts 58°